SCP
0 0 0 0 0 0 0 -0 0 0 0 0 -0 0 0 -0 -0 0 -0 -0 -0 -2 -2 -2 -1 -1 -1 -2 -2 -2 -2 -2 -1 -1 -1 -0 -0 -0 -0 -0 -0 0 -0 0 0 0 -0 0 0
0 0 0 0 0 0 0 0 0 -0 0 0 0 0 0 -0 0 0 0 0 0 -1 -1 -1 -2 -1 -1 -1 -2 -2 -2 -2 -1 -1 -1 -0 -0 -0 -0 -0 -0 -0 -0 -0 -0 -0 -0 -0 0
0 0 0 0 0 0 0 -0 0 0 0 -0 0 0 0 0 0 -0 0 1 1 -0 -0 -1 -1 -1 -1 -1 -1 -1 -2 -2 -1 -1 -1 -0 -0 -0 -0 -0 -0 -0 -0 -0 -0 -0 -0 -0 0
0 0 0 0 0 0 0 0 0 -0 -0 0 0 0 0 0 0 0 1 1 1 1 0 -1 -1 -1 -1 -1 -1 -1 -1 -1 -1 -1 -1 -0 -0 -0 -0 -0 -0 -0 -0 -0 -0 -0 -0 -0 0
0 0 0 0 0 0 0 0 -0 -0 -0 -0 0 -0 0 0 -0 1 1 1 1 1 1 0 -0 -1 -0 -0 -1 -0 -1 -1 -1 -1 -1 -0 -0 -0 -0 -0 -0 -0 -0 -0 -0 -0 -0 0 0
0 0 0 0 0 0 -0 -0 -0 -0 -0 0 0 0 0 -0 -1 1 1 2 2 2 1 1 0 -0 -0 -0 -0 -0 -0 -0 -0 -0 -0 -0 -0 -0 -0 -0 -0 -0 -0 -0 -0 -0 0 0 0
0 0 0 0 0 -0 -0 0 -0 0 0 0 0 0 0 0 -0 0 2 2 2 2 2 1 1 1 0 -0 -0 -0 -0 -0 -0 -0 -0 -0 -0 -0 -0 -0 -0 -0 -0 -0 -0 0 0 0 0
0 0 0 0 0 -0 0 0 -0 -0 0 0 0 0 0 0 0 1 2 2 2 2 2 1 1 1 1 1 -0 -0 0 0 0 -0 -0 -0 -0 -0 -0 -0 -0 -0 -0 -0 0 0 0 0 0
0 0 0 0 0 0 -0 -0 -0 -0 -0 -0 0 0 0 0 0 0 2 3 3 3 1 1 1 1 1 1 0 0 -0 0 0 0 -0 0 0 0 0 0 -0 -0 -0 -0 0 0 0 0 0
0 0 0 0 0 0 -0 -0 -0 -0 0 -0 -0 0 0 0 0 0 2 2 2 2 2 1 1 1 1 1 1 0 0 0 0 0 0 0 0 0 0 0 -0 -0 0 0 0 0 0 0 0
0 0 0 0 0 0 -0 -0 -0 -0 -0 -0 -0 0 0 0 1 1 2 2 1 2 2 2 1 1 1 1 1 1 1 0 0 0 0 0 0 0 0 0 0 0 0 0 0 0 0 0 0
0 0 0 0 0 0 0 -0 -0 -0 -0 -0 -0 -0 -0 0 0 2 3 3 1 2 2 2 1 1 1 1 1 1 1 0 0 0 0 0 0 0 0 0 0 0 0 0 0 0 0 0 0
0 0 0 0 0 0 0 0 -0 -0 -0 -0 -0 -0 -0 0 0 0 4 7 2 1 2 2 1 1 1 1 1 1 0 0 0 0 0 0 0 0 0 0 0 0 0 0 0 0 0 0 0
0 0 0 0 0 0 0 0 0 -0 -0 -0 -0 -0 -0 0 0 0 1 6 4 2 2 2 2 1 1 1 1 1 0 0 0 0 0 0 0 0 0 0 0 0 0 0 0 0 0 0 0
0 0 0 0 0 0 0 0 -0 -0 -0 -0 -0 -0 -0 -0 0 0 0 1 5 4 2 2 3 2 1 1 1 1 1 0 0 0 0 0 0 0 0 0 0 0 0 0 0 0 0 0 0
0 0 0 0 0 0 0 -0 -0 -0 -0 -0 -0 -0 -0 -0 0 0 0 0 0 4 3 3 3 2 1 1 1 1 1 0 0 0 0 0 0 0 0 0 0 0 0 0 0 0 0 0 0
0 0 0 0 0 0 0 0 -0 -0 0 -0 -0 -0 -0 -0 0 0 0 0 0 1 4 2 3 3 2 1 1 1 1 1 0 0 0 0 0 0 0 0 0 0 0 0 0 0 0 0 0
0 0 0 0 0 0 0 0 0 0 -0 -0 -0 -0 -0 -0 0 0 0 0 0 0 2 3 4 4 3 3 2 1 1 0 0 0 0 0 0 0 0 0 0 0 0 0 0 0 0 0 0
0 0 0 0 0 0 0 0 0 0 0 -0 -0 -0 -0 -0 0 0 0 0 0 0 1 3 4 3 4 4 3 2 1 0 0 0 0 0 0 0 0 0 0 0 0 0 0 0 0 0 0
0 0 0 0 0 0 0 0 0 0 0 0 0 0 -0 -0 -0 0 0 0 0 0 1 3 4 4 5 4 4 2 1 1 0 0 0 0 0 0 0 0 0 0 0 0 0 0 0 0 0
0 0 0 0 0 0 0 0 0 0 0 0 0 0 0 -0 -0 0 0 0 0 0 1 3 3 3 4 4 3 1 0 0 0 0 0 0 0 0 0 0 0 0 0 0 0 0 0 0 0
0 0 0 0 0 0 0 0 0 0 0 0 0 0 0 0 0 0 0 0 0 0 0 2 3 3 4 4 2 1 1 0 0 0 0 0 0 0 0 0 0 0 0 0 0 0 0 0 0
0 0 0 0 0 0 0 0 0 0 0 0 0 0 0 0 0 0 0 0 0 0 0 0 2 2 3 3 2 1 1 0 0 0 0 0 0 0 0 0 0 0 0 0 0 0 0 0 0
0 0 0 0 0 0 0 0 0 0 0 0 0 0 0 0 0 0 0 0 0 0 0 1 1 1 2 2 1 1 1 0 0 0 0 0 0 0 0 0 0 0 0 0 0 0 0 0 0
0 0 0 0 0 0 0 0 0 0 0 0 0 0 0 0 0 0 0 0 0 0 0 0 1 1 1 1 1 0 0 0 0 0 0 0 0 0 0 0 0 0 0 0 0 0 0 0 0
0 0 0 0 0 0 0 0 0 0 0 -0 -0 0 -0 0 0 0 0 0 0 0 0 0 1 1 1 1 1 1 1 0 0 0 0 0 0 0 0 0 0 0 0 0 0 0 0 0 0
0 0 0 0 0 0 0 0 0 0 -0 -0 -0 -0 -0 0 0 0 0 0 0 0 0 0 0 1 0 1 1 1 1 1 0 0 0 0 0 0 0 0 0 0 0 0 0 0 0 0 0
0 0 0 0 0 0 0 0 0 0 -0 -0 0 0 -0 0 0 0 0 0 0 0 0 0 0 0 0 1 1 1 1 1 1 1 1 1 1 1 1 1 1 0 0 0 0 0 0 0 0
0 0 0 0 0 0 0 0 0 0 0 -0 -0 0 -0 0 0 0 0 0 0 0 0 0 0 0 0 0 0 0 0 1 2 2 2 2 2 1 1 1 1 0 0 1 0 0 0 0 0
0 0 0 0 0 0 0 0 0 0 0 0 -0 -0 0 -0 0 0 0 0 0 0 0 0 0 0 0 0 0 0 1 1 2 3 3 3 2 2 2 1 1 1 0 0 1 0 0 0 0
Wind_Speed_500mb
5 8 7 6 7 10 7 13 5 6 13 13 19 15 16 20 10 11 35 33 45 66 74 72 69 65 59 55 56 58 58 56 51 47 42 40 43 48 49 48 48 43 41 40 37 34 32 31 29
4 12 11 7 9 2 11 8 2 3 15 39 37 21 23 18 31 39 33 42 53 66 75 78 76 70 62 58 59 61 61 59 54 50 45 44 44 47 49 47 47 41 41 38 34 32 30 30 28
10 14 7 8 7 12 10 5 5 15 33 12 18 41 17 16 30 26 27 44 66 70 75 77 78 72 65 61 61 63 64 62 57 52 48 47 45 47 50 47 45 42 39 36 33 31 29 27 26
11 9 9 8 14 13 11 5 16 20 16 34 35 16 33 25 37 37 27 49 67 76 78 78 80 73 66 61 61 64 65 64 60 55 52 51 50 50 51 48 45 42 38 36 33 31 28 25 25
11 7 6 0 12 10 9 11 19 13 16 22 40 13 42 33 56 41 28 53 63 78 81 81 81 74 66 60 59 61 66 64 62 59 56 55 53 53 54 51 46 41 38 36 33 29 27 24 22
7 6 5 8 11 5 9 15 9 4 20 46 21 28 27 25 69 66 31 53 60 74 83 82 81 76 68 60 56 57 63 62 60 60 59 58 56 56 56 53 47 42 39 36 32 29 26 23 20
12 8 7 7 6 6 5 28 9 14 17 18 40 18 34 42 78 76 45 55 56 74 85 86 82 77 70 64 58 56 59 60 60 59 59 58 57 57 57 53 47 44 41 35 31 28 25 23 21
7 8 4 5 8 10 6 41 31 36 32 37 26 12 26 81 76 73 45 55 63 74 88 89 87 82 75 69 62 58 57 57 59 59 59 58 58 58 58 54 49 45 42 36 30 28 25 23 22
7 9 4 7 10 15 30 20 33 45 29 28 45 57 67 62 66 49 47 58 70 83 91 93 92 89 82 75 67 61 57 55 56 59 60 60 61 60 59 56 51 48 44 36 31 27 24 24 23
9 7 12 5 9 15 25 36 50 33 47 23 57 60 62 59 55 40 49 67 80 92 97 97 96 93 89 83 77 69 65 62 59 60 62 61 60 60 59 58 54 49 44 38 34 30 26 26 24
3 7 7 12 21 33 29 30 46 37 21 46 54 68 67 64 56 47 49 65 71 71 92 98 97 96 93 90 86 79 75 70 64 60 59 61 62 63 62 60 57 52 47 42 38 32 26 26 25
5 11 12 12 40 35 30 43 22 39 46 54 47 55 60 58 57 53 60 65 73 73 84 95 91 96 95 93 90 86 82 77 73 67 63 63 65 66 65 62 58 55 48 43 39 33 29 28 26
7 8 7 37 45 47 40 26 31 41 50 45 43 46 51 56 57 51 62 67 79 80 88 94 88 97 96 96 93 90 87 82 77 72 67 64 64 65 64 64 60 54 47 43 38 34 31 28 25
10 18 30 23 29 25 17 28 36 38 54 48 45 46 47 51 56 51 39 72 80 83 86 91 89 93 101 99 97 95 91 85 79 75 70 65 59 58 60 61 59 53 48 43 37 35 33 29 25
10 8 12 10 19 15 20 12 16 48 57 55 52 49 44 52 58 51 46 46 84 85 86 88 94 91 101 102 100 97 93 88 84 80 73 66 60 55 55 59 58 51 46 43 39 38 35 28 27
8 6 9 11 12 19 7 26 17 58 38 60 59 58 51 49 55 57 45 39 57 85 86 81 84 100 102 100 100 97 95 92 88 84 77 70 63 57 56 55 54 48 45 43 40 39 35 27 28
11 11 12 15 10 12 9 22 18 60 56 49 60 60 53 50 49 58 49 40 36 60 87 83 82 91 103 103 100 97 98 97 92 88 81 74 68 61 55 53 52 48 47 45 42 42 36 33 30
16 14 13 14 13 11 16 27 16 46 51 49 57 65 64 55 61 54 55 45 45 46 71 87 87 91 100 104 102 99 99 97 92 91 87 80 73 65 58 55 53 50 49 48 48 44 38 36 31
12 11 20 25 16 10 27 37 33 46 49 52 50 61 60 67 66 65 52 50 46 47 54 72 87 96 101 104 109 107 106 95 88 88 89 82 75 68 63 59 54 54 51 46 48 42 42 39 33
9 13 15 17 11 17 23 46 39 36 35 58 56 57 66 66 63 67 44 45 45 45 55 67 80 92 102 102 94 101 103 96 86 82 83 82 78 71 68 63 59 56 54 51 49 45 45 41 36
6 12 11 18 33 10 11 30 11 34 28 52 59 59 61 39 35 40 32 31 41 43 56 67 78 87 92 100 101 96 101 89 84 82 83 84 79 76 73 67 64 62 58 57 55 50 49 48 44
8 4 15 29 14 13 12 23 5 17 27 23 45 52 55 46 47 46 38 26 32 39 57 72 78 84 88 104 101 102 103 97 97 87 85 82 80 78 75 71 69 64 65 63 60 54 51 46 47
15 18 24 27 15 8 2 1 12 13 23 35 34 57 62 61 58 58 54 42 32 31 55 69 79 84 85 95 93 95 102 92 88 84 78 76 72 72 73 72 71 70 69 64 62 59 56 51 48
19 10 20 5 4 4 8 2 6 8 8 24 41 54 61 69 71 57 59 55 45 11 27 58 77 86 89 92 96 93 99 96 92 86 89 80 72 68 67 66 66 69 72 67 63 63 57 55 53
19 14 10 12 8 9 6 9 14 6 9 20 31 52 58 63 69 68 67 71 64 45 18 37 65 82 90 93 95 97 100 100 93 87 83 77 70 68 67 63 62 65 65 67 66 62 62 60 58
6 5 5 9 6 16 20 10 10 10 20 30 35 42 48 60 61 67 62 61 63 64 49 12 45 68 85 94 95 97 103 106 100 93 85 75 70 60 58 60 62 61 56 61 62 65 66 65 59
5 1 7 11 10 9 7 12 4 12 25 39 41 51 57 59 60 67 68 62 55 59 62 49 12 35 69 88 97 98 102 111 106 96 87 79 70 62 60 56 57 60 60 60 59 61 65 70 67
0 2 4 4 9 10 10 10 8 21 29 35 44 60 70 72 79 68 72 63 46 47 49 54 34 7 28 63 84 94 98 106 110 101 92 82 70 64 58 53 53 55 59 63 66 66 66 66 67
3 2 2 7 6 7 9 9 7 11 19 27 36 59 61 70 64 75 79 64 52 39 41 45 48 33 7 28 60 76 86 93 97 101 97 85 75 65 64 56 49 50 56 65 72 71 72 63 64
10 8 6 6 5 9 7 13 10 11 14 39 50 58 63 57 61 61 73 71 56 44 37 37 39 35 27 1 39 60 74 77 91 94 92 84 80 76 70 62 55 51 55 59 72 76 75 71 66
Wind_Direction_500mb
219 179 153 132 51 62 259 258 264 6 347 355 311 280 246 256 187 245 328 201 191 182 182 184 180 182 189 188 185 182 178 177 180 179 173 167 163 162 161 161 161 158 155 155 151 145 140 136 133
156 148 131 111 99 127 257 251 259 232 332 329 321 338 309 277 257 264 297 201 191 185 182 182 180 184 187 187 185 185 185 183 185 184 178 173 169 167 166 166 166 163 160 159 155 149 145 144 140
146 148 133 102 128 205 231 222 124 320 335 355 337 323 291 292 306 304 274 206 190 188 185 183 182 185 187 186 187 188 189 189 190 189 184 179 175 173 170 170 170 168 165 164 160 154 152 149 145
143 129 79 101 221 255 199 152 347 350 338 347 333 309 312 313 311 301 274 212 191 191 186 185 184 186 187 187 188 190 192 193 194 194 190 185 179 177 175 174 174 173 171 169 165 161 158 157 152
134 97 60 250 255 278 327 330 344 327 301 321 323 292 302 326 354 315 261 207 193 194 188 186 187 186 188 189 189 191 192 194 195 194 193 188 183 181 179 177 178 177 176 173 169 168 165 167 162
86 81 80 243 249 327 307 294 299 320 348 336 342 319 299 335 343 342 282 208 201 199 191 189 188 188 188 191 191 190 191 193 194 193 192 190 186 184 183 182 182 181 180 178 174 174 175 175 171
114 89 220 280 272 10 309 12 6 343 344 316 338 325 289 304 334 325 303 214 208 202 195 192 190 190 190 192 192 191 192 193 193 193 192 190 188 187 187 186 185 185 184 183 179 180 183 181 181
85 85 35 301 338 287 345 353 344 332 309 309 309 300 310 319 326 309 282 229 213 204 199 196 193 191 192 193 194 193 193 193 193 193 193 191 191 190 191 190 190 189 189 188 184 187 190 188 189
74 55 15 282 332 295 323 335 332 328 303 317 305 295 304 311 320 309 262 227 212 204 204 199 196 195 194 195 194 194 195 194 193 194 194 194 194 193 194 194 194 194 193 192 190 193 194 196 198
83 111 219 220 278 286 310 324 318 327 316 313 326 324 325 320 310 295 259 229 212 207 205 204 200 199 196 196 197 195 195 195 194 194 196 197 197 197 198 199 198 199 200 198 201 200 199 201 202
56 168 223 279 308 312 304 307 315 307 303 311 309 313 318 313 306 287 266 233 218 212 208 206 204 202 199 198 198 198 198 197 196 197 198 199 199 199 200 202 202 203 204 206 207 206 205 206 205
3 256 274 287 315 320 308 309 296 291 293 304 305 307 308 307 298 283 261 238 222 215 212 210 209 206 204 203 203 202 201 200 198 197 199 201 202 202 202 204 206 206 206 209 210 209 210 211 208
167 248 255 302 311 310 305 288 291 295 318 298 299 310 297 300 298 302 263 255 228 222 215 212 211 210 208 208 206 206 206 204 203 201 202 204 207 207 206 206 208 208 207 209 212 212 214 215 213
288 296 300 305 304 293 275 295 310 306 310 306 318 318 309 300 301 308 296 246 237 228 222 222 215 214 213 212 212 210 210 209 208 207 207 208 210 212 212 212 211 209 210 212 214 214 216 216 216
271 299 327 282 296 294 317 307 292 305 308 310 308 313 311 297 295 301 308 274 248 236 229 227 226 217 217 217 216 216 215 213 213 212 212 212 212 213 216 217 216 213 212 214 212 213 218 217 221
348 57 353 270 278 281 327 297 273 306 292 305 307 312 312 303 296 294 301 290 254 244 232 231 228 225 221 220 219 219 219 219 217 217 216 215 215 216 218 220 219 215 214 213 212 214 219 211 211
355 277 268 300 242 278 218 293 282 310 299 289 299 300 305 305 300 286 294 295 277 247 240 231 229 228 225 222 221 222 223 223 221 221 219 217 218 218 220 221 219 216 216 215 214 215 216 204 210
289 300 271 264 299 299 291 284 284 297 294 287 288 294 295 301 303 298 287 293 276 266 242 238 236 228 224 223 223 223 226 228 226 224 221 218 219 220 222 222 219 217 217 217 217 217 212 205 215
265 260 258 284 278 320 300 286 286 282 281 286 278 284 287 295 300 303 288 293 283 260 248 243 234 226 220 219 221 222 226 227 228 224 223 220 221 221 223 225 220 217 217 217 215 213 208 211 218
288 287 279 282 295 302 293 289 283 294 277 274 274 280 282 292 308 304 299 288 285 252 247 240 236 228 223 221 223 225 228 228 228 225 224 224 224 223 226 227 224 218 215 211 209 207 210 219 223
284 263 293 289 316 231 291 286 342 312 285 288 294 284 288 302 328 330 313 295 286 245 234 238 233 230 225 221 219 221 225 224 227 226 224 223 223 226 227 228 227 222 219 214 212 215 219 228 229
309 279 306 306 332 302 69 292 357 343 354 354 357 0 351 340 355 357 348 328 311 252 227 242 235 230 225 220 217 215 220 219 221 218 220 221 222 225 228 229 229 225 221 219 217 220 227 233 230
250 305 274 283 271 335 272 257 275 6 359 347 348 351 350 350 342 1 0 359 342 263 226 232 236 233 226 222 219 218 220 222 223 223 218 216 220 223 225 229 230 227 223 222 221 222 226 235 230
296 336 320 59 104 19 238 133 273 5 329 344 345 343 345 341 341 353 9 10 10 291 235 225 231 231 226 224 220 219 221 218 219 222 221 216 217 219 219 225 226 227 224 224 223 226 229 234 235
16 17 342 353 360 234 222 316 247 211 39 29 339 334 338 337 339 345 359 13 12 16 335 222 232 230 227 225 221 220 222 220 221 224 220 219 218 218 220 220 221 222 223 226 226 228 232 233 237
336 100 145 286 283 292 282 234 263 133 52 7 350 331 336 337 338 349 348 1 9 17 17 318 221 236 230 226 227 221 223 223 223 225 227 224 220 219 222 225 227 229 227 225 226 232 235 236 236
311 96 147 272 269 272 251 287 287 33 3 359 346 344 344 338 342 353 351 356 8 11 18 23 226 238 235 233 229 226 222 225 226 228 230 232 230 226 223 225 231 234 234 231 229 231 235 236 235
241 205 15 325 294 283 270 274 249 1 350 345 347 343 340 339 345 351 350 356 2 359 8 22 37 246 225 231 230 233 228 227 228 230 232 231 235 237 232 227 232 239 239 239 234 235 237 237 235
335 167 229 258 223 284 302 259 91 28 358 342 337 332 336 334 338 339 348 345 338 348 349 6 23 39 225 221 230 230 234 231 228 231 233 236 238 243 242 236 238 241 242 242 240 238 239 238 232
193 190 170 256 273 254 267 278 109 69 356 353 337 329 330 335 336 337 340 342 338 332 333 345 359 20 41 179 227 230 233 233 232 233 235 237 239 248 248 246 248 251 248 249 246 241 243 237 230
Wind_Speed_850mb
5 8 7 6 7 10 7 13 5 6 13 13 19 15 16 20 10 11 35 33 45 66 74 72 69 65 59 55 56 58 58 56 51 47 42 40 43 48 49 48 48 43 41 40 37 34 32 31 29
4 12 11 7 9 2 11 8 2 3 15 39 37 21 23 18 31 39 33 42 53 66 75 78 76 70 62 58 59 61 61 59 54 50 45 44 44 47 49 47 47 41 41 38 34 32 30 30 28
10 14 7 8 7 12 10 5 5 15 33 12 18 41 17 16 30 26 27 44 66 70 75 77 78 72 65 61 61 63 64 62 57 52 48 47 45 47 50 47 45 42 39 36 33 31 29 27 26
11 9 9 8 14 13 11 5 16 20 16 34 35 16 33 25 37 37 27 49 67 76 78 78 80 73 66 61 61 64 65 64 60 55 52 51 50 50 51 48 45 42 38 36 33 31 28 25 25
11 7 6 0 12 10 9 11 19 13 16 22 40 13 42 33 56 41 28 53 63 78 81 81 81 74 66 60 59 61 66 64 62 59 56 55 53 53 54 51 46 41 38 36 33 29 27 24 22
7 6 5 8 11 5 9 15 9 4 20 46 21 28 27 25 69 66 31 53 60 74 83 82 81 76 68 60 56 57 63 62 60 60 59 58 56 56 56 53 47 42 39 36 32 29 26 23 20
12 8 7 7 6 6 5 28 9 14 17 18 40 18 34 42 78 76 45 55 56 74 85 86 82 77 70 64 58 56 59 60 60 59 59 58 57 57 57 53 47 44 41 35 31 28 25 23 21
7 8 4 5 8 10 6 41 31 36 32 37 26 12 26 81 76 73 45 55 63 74 88 89 87 82 75 69 62 58 57 57 59 59 59 58 58 58 58 54 49 45 42 36 30 28 25 23 22
7 9 4 7 10 15 30 20 33 45 29 28 45 57 67 62 66 49 47 58 70 83 91 93 92 89 82 75 67 61 57 55 56 59 60 60 61 60 59 56 51 48 44 36 31 27 24 24 23
9 7 12 5 9 15 25 36 50 33 47 23 57 60 62 59 55 40 49 67 80 92 97 97 96 93 89 83 77 69 65 62 59 60 62 61 60 60 59 58 54 49 44 38 34 30 26 26 24
3 7 7 12 21 33 29 30 46 37 21 46 54 68 67 64 56 47 49 65 71 71 92 98 97 96 93 90 86 79 75 70 64 60 59 61 62 63 62 60 57 52 47 42 38 32 26 26 25
5 11 12 12 40 35 30 43 22 39 46 54 47 55 60 58 57 53 60 65 73 73 84 95 91 96 95 93 90 86 82 77 73 67 63 63 65 66 65 62 58 55 48 43 39 33 29 28 26
7 8 7 37 45 47 40 26 31 41 50 45 43 46 51 56 57 51 62 67 79 80 88 94 88 97 96 96 93 90 87 82 77 72 67 64 64 65 64 64 60 54 47 43 38 34 31 28 25
10 18 30 23 29 25 17 28 36 38 54 48 45 46 47 51 56 51 39 72 80 83 86 91 89 93 101 99 97 95 91 85 79 75 70 65 59 58 60 61 59 53 48 43 37 35 33 29 25
10 8 12 10 19 15 20 12 16 48 57 55 52 49 44 52 58 51 46 46 84 85 86 88 94 91 101 102 100 97 93 88 84 80 73 66 60 55 55 59 58 51 46 43 39 38 35 28 27
8 6 9 11 12 19 7 26 17 58 38 60 59 58 51 49 55 57 45 39 57 85 86 81 84 100 102 100 100 97 95 92 88 84 77 70 63 57 56 55 54 48 45 43 40 39 35 27 28
11 11 12 15 10 12 9 22 18 60 56 49 60 60 53 50 49 58 49 40 36 60 87 83 82 91 103 103 100 97 98 97 92 88 81 74 68 61 55 53 52 48 47 45 42 42 36 33 30
16 14 13 14 13 11 16 27 16 46 51 49 57 65 64 55 61 54 55 45 45 46 71 87 87 91 100 104 102 99 99 97 92 91 87 80 73 65 58 55 53 50 49 48 48 44 38 36 31
12 11 20 25 16 10 27 37 33 46 49 52 50 61 60 67 66 65 52 50 46 47 54 72 87 96 101 104 109 107 106 95 88 88 89 82 75 68 63 59 54 54 51 46 48 42 42 39 33
9 13 15 17 11 17 23 46 39 36 35 58 56 57 66 66 63 67 44 45 45 45 55 67 80 92 102 102 94 101 103 96 86 82 83 82 78 71 68 63 59 56 54 51 49 45 45 41 36
6 12 11 18 33 10 11 30 11 34 28 52 59 59 61 39 35 40 32 31 41 43 56 67 78 87 92 100 101 96 101 89 84 82 83 84 79 76 73 67 64 62 58 57 55 50 49 48 44
8 4 15 29 14 13 12 23 5 17 27 23 45 52 55 46 47 46 38 26 32 39 57 72 78 84 88 104 101 102 103 97 97 87 85 82 80 78 75 71 69 64 65 63 60 54 51 46 47
15 18 24 27 15 8 2 1 12 13 23 35 34 57 62 61 58 58 54 42 32 31 55 69 79 84 85 95 93 95 102 92 88 84 78 76 72 72 73 72 71 70 69 64 62 59 56 51 48
19 10 20 5 4 4 8 2 6 8 8 24 41 54 61 69 71 57 59 55 45 11 27 58 77 86 89 92 96 93 99 96 92 86 89 80 72 68 67 66 66 69 72 67 63 63 57 55 53
19 14 10 12 8 9 6 9 14 6 9 20 31 52 58 63 69 68 67 71 64 45 18 37 65 82 90 93 95 97 100 100 93 87 83 77 70 68 67 63 62 65 65 67 66 62 62 60 58
6 5 5 9 6 16 20 10 10 10 20 30 35 42 48 60 61 67 62 61 63 64 49 12 45 68 85 94 95 97 103 106 100 93 85 75 70 60 58 60 62 61 56 61 62 65 66 65 59
5 1 7 11 10 9 7 12 4 12 25 39 41 51 57 59 60 67 68 62 55 59 62 49 12 35 69 88 97 98 102 111 106 96 87 79 70 62 60 56 57 60 60 60 59 61 65 70 67
0 2 4 4 9 10 10 10 8 21 29 35 44 60 70 72 79 68 72 63 46 47 49 54 34 7 28 63 84 94 98 106 110 101 92 82 70 64 58 53 53 55 59 63 66 66 66 66 67
3 2 2 7 6 7 9 9 7 11 19 27 36 59 61 70 64 75 79 64 52 39 41 45 48 33 7 28 60 76 86 93 97 101 97 85 75 65 64 56 49 50 56 65 72 71 72 63 64
10 8 6 6 5 9 7 13 10 11 14 39 50 58 63 57 61 61 73 71 56 44 37 37 39 35 27 1 39 60 74 77 91 94 92 84 80 76 70 62 55 51 55 59 72 76 75 71 66
Wind_Direction_850mb
219 179 153 132 51 62 259 258 264 6 347 355 311 280 246 256 187 245 328 201 191 182 182 184 180 182 189 188 185 182 178 177 180 179 173 167 163 162 161 161 161 158 155 155 151 145 140 136 133
156 148 131 111 99 127 257 251 259 232 332 329 321 338 309 277 257 264 297 201 191 185 182 182 180 184 187 187 185 185 185 183 185 184 178 173 169 167 166 166 166 163 160 159 155 149 145 144 140
146 148 133 102 128 205 231 222 124 320 335 355 337 323 291 292 306 304 274 206 190 188 185 183 182 185 187 186 187 188 189 189 190 189 184 179 175 173 170 170 170 168 165 164 160 154 152 149 145
143 129 79 101 221 255 199 152 347 350 338 347 333 309 312 313 311 301 274 212 191 191 186 185 184 186 187 187 188 190 192 193 194 194 190 185 179 177 175 174 174 173 171 169 165 161 158 157 152
134 97 60 250 255 278 327 330 344 327 301 321 323 292 302 326 354 315 261 207 193 194 188 186 187 186 188 189 189 191 192 194 195 194 193 188 183 181 179 177 178 177 176 173 169 168 165 167 162
86 81 80 243 249 327 307 294 299 320 348 336 342 319 299 335 343 342 282 208 201 199 191 189 188 188 188 191 191 190 191 193 194 193 192 190 186 184 183 182 182 181 180 178 174 174 175 175 171
114 89 220 280 272 10 309 12 6 343 344 316 338 325 289 304 334 325 303 214 208 202 195 192 190 190 190 192 192 191 192 193 193 193 192 190 188 187 187 186 185 185 184 183 179 180 183 181 181
85 85 35 301 338 287 345 353 344 332 309 309 309 300 310 319 326 309 282 229 213 204 199 196 193 191 192 193 194 193 193 193 193 193 193 191 191 190 191 190 190 189 189 188 184 187 190 188 189
74 55 15 282 332 295 323 335 332 328 303 317 305 295 304 311 320 309 262 227 212 204 204 199 196 195 194 195 194 194 195 194 193 194 194 194 194 193 194 194 194 194 193 192 190 193 194 196 198
83 111 219 220 278 286 310 324 318 327 316 313 326 324 325 320 310 295 259 229 212 207 205 204 200 199 196 196 197 195 195 195 194 194 196 197 197 197 198 199 198 199 200 198 201 200 199 201 202
56 168 223 279 308 312 304 307 315 307 303 311 309 313 318 313 306 287 266 233 218 212 208 206 204 202 199 198 198 198 198 197 196 197 198 199 199 199 200 202 202 203 204 206 207 206 205 206 205
3 256 274 287 315 320 308 309 296 291 293 304 305 307 308 307 298 283 261 238 222 215 212 210 209 206 204 203 203 202 201 200 198 197 199 201 202 202 202 204 206 206 206 209 210 209 210 211 208
167 248 255 302 311 310 305 288 291 295 318 298 299 310 297 300 298 302 263 255 228 222 215 212 211 210 208 208 206 206 206 204 203 201 202 204 207 207 206 206 208 208 207 209 212 212 214 215 213
288 296 300 305 304 293 275 295 310 306 310 306 318 318 309 300 301 308 296 246 237 228 222 222 215 214 213 212 212 210 210 209 208 207 207 208 210 212 212 212 211 209 210 212 214 214 216 216 216
271 299 327 282 296 294 317 307 292 305 308 310 308 313 311 297 295 301 308 274 248 236 229 227 226 217 217 217 216 216 215 213 213 212 212 212 212 213 216 217 216 213 212 214 212 213 218 217 221
348 57 353 270 278 281 327 297 273 306 292 305 307 312 312 303 296 294 301 290 254 244 232 231 228 225 221 220 219 219 219 219 217 217 216 215 215 216 218 220 219 215 214 213 212 214 219 211 211
355 277 268 300 242 278 218 293 282 310 299 289 299 300 305 305 300 286 294 295 277 247 240 231 229 228 225 222 221 222 223 223 221 221 219 217 218 218 220 221 219 216 216 215 214 215 216 204 210
289 300 271 264 299 299 291 284 284 297 294 287 288 294 295 301 303 298 287 293 276 266 242 238 236 228 224 223 223 223 226 228 226 224 221 218 219 220 222 222 219 217 217 217 217 217 212 205 215
265 260 258 284 278 320 300 286 286 282 281 286 278 284 287 295 300 303 288 293 283 260 248 243 234 226 220 219 221 222 226 227 228 224 223 220 221 221 223 225 220 217 217 217 215 213 208 211 218
288 287 279 282 295 302 293 289 283 294 277 274 274 280 282 292 308 304 299 288 285 252 247 240 236 228 223 221 223 225 228 228 228 225 224 224 224 223 226 227 224 218 215 211 209 207 210 219 223
284 263 293 289 316 231 291 286 342 312 285 288 294 284 288 302 328 330 313 295 286 245 234 238 233 230 225 221 219 221 225 224 227 226 224 223 223 226 227 228 227 222 219 214 212 215 219 228 229
309 279 306 306 332 302 69 292 357 343 354 354 357 0 351 340 355 357 348 328 311 252 227 242 235 230 225 220 217 215 220 219 221 218 220 221 222 225 228 229 229 225 221 219 217 220 227 233 230
250 305 274 283 271 335 272 257 275 6 359 347 348 351 350 350 342 1 0 359 342 263 226 232 236 233 226 222 219 218 220 222 223 223 218 216 220 223 225 229 230 227 223 222 221 222 226 235 230
296 336 320 59 104 19 238 133 273 5 329 344 345 343 345 341 341 353 9 10 10 291 235 225 231 231 226 224 220 219 221 218 219 222 221 216 217 219 219 225 226 227 224 224 223 226 229 234 235
16 17 342 353 360 234 222 316 247 211 39 29 339 334 338 337 339 345 359 13 12 16 335 222 232 230 227 225 221 220 222 220 221 224 220 219 218 218 220 220 221 222 223 226 226 228 232 233 237
336 100 145 286 283 292 282 234 263 133 52 7 350 331 336 337 338 349 348 1 9 17 17 318 221 236 230 226 227 221 223 223 223 225 227 224 220 219 222 225 227 229 227 225 226 232 235 236 236
311 96 147 272 269 272 251 287 287 33 3 359 346 344 344 338 342 353 351 356 8 11 18 23 226 238 235 233 229 226 222 225 226 228 230 232 230 226 223 225 231 234 234 231 229 231 235 236 235
241 205 15 325 294 283 270 274 249 1 350 345 347 343 340 339 345 351 350 356 2 359 8 22 37 246 225 231 230 233 228 227 228 230 232 231 235 237 232 227 232 239 239 239 234 235 237 237 235
335 167 229 258 223 284 302 259 91 28 358 342 337 332 336 334 338 339 348 345 338 348 349 6 23 39 225 221 230 230 234 231 228 231 233 236 238 243 242 236 238 241 242 242 240 238 239 238 232
193 190 170 256 273 254 267 278 109 69 356 353 337 329 330 335 336 337 340 342 338 332 333 345 359 20 41 179 227 230 233 233 232 233 235 237 239 248 248 246 248 251 248 249 246 241 243 237 230